Station: Mackay  

  Atmospheric Gas Attenuation - ITU Rec 676-11   ----------------- dB/100km -----------------
Date Time Temp RH % AH g/m3 Dew Point Wind Direction Speed kph Gust kph Barometer mB Rainfall Since 9am 24GHz 47GHz 76GHz 122GHz 134GHz 241GHz
10/05 13:00 24.6 74 16.65 19.7 22 37 1020.9 0 36.0 36.2 67.2 177.5 191.6 665.2
10/05 12:50 24.4 71 15.8 18.8 22 33 1021 0 34.2 34.8 63.6 167.9 179.8 623.9
10/05 12:40 24.7 73 16.52 19.5 26 32 1021.2 0 35.7 35.9 66.5 175.8 189.5 657.9
10/05 12:30 24.4 75 16.69 19.7 20 30 1021.2 0 36.1 36.4 67.6 178.5 192.7 669.1
10/05 12:20 24.5 75 16.78 19.8 19 26 1021.5 0 36.2 36.5 67.9 179.4 193.8 673.0
10/05 12:10 24.3 78 17.26 20.2 17 24 1021.6 0 37.3 37.5 70.3 185.7 201.5 699.7
10/05 12:00 24.1 75 16.41 19.4 19 32 1021.6 0 35.5 36.0 66.6 175.9 189.4 657.6
10/05 11:50 24.2 76 16.72 19.7 19 24 1021.7 0 36.1 36.5 67.9 179.4 193.8 672.7
10/05 11:40 24.7 76 17.2 20.2 17 26 1021.8 0 37.1 37.2 69.7 184.0 199.6 693.0
10/05 11:30 23.8 78 16.78 19.7 19 30 1022 0 36.3 36.8 68.6 181.1 195.7 679.4
10/05 11:20 23.5 77 16.28 19.2 26 32 1022 0 35.3 36.0 66.6 175.8 189.1 656.2
10/05 11:10 23.4 78 16.4 19.3 19 24 1022.1 0 35.5 36.3 67.2 177.5 191.1 663.3
10/05 11:00 23.7 76 16.26 19.2 22 39 1022.1 0 35.2 35.9 66.3 175.1 188.3 653.6
10/05 10:50 24 75 16.32 19.3 24 32 1022.1 0 35.3 35.9 66.3 175.1 188.4 654.1
10/05 10:40 23.7 77 16.47 19.4 19 30 1022.2 0 35.7 36.3 67.3 177.6 191.4 664.4
10/05 10:30 24.3 75 16.6 19.6 22 35 1022.3 0 35.9 36.3 67.3 177.8 191.8 665.9
10/05 10:20 24.2 75 16.5 19.5 20 24 1022.4 0 35.7 36.2 67.0 176.9 190.6 661.7
10/05 10:10 24.5 77 17.23 20.2 20 28 1022.4 0 37.2 37.4 70.0 185.0 200.7 696.7
10/05 10:00 24.2 76 16.72 19.7 20 30 1022.5 0 36.1 36.6 68.0 179.5 193.9 673.0
10/05 09:50 24.2 78 17.16 20.1 20 32 1022.4 0 37.1 37.4 70.0 184.8 200.4 695.8
10/05 09:40 23.5 77 16.28 19.2 20 28 1022.4 0 35.3 36.1 66.6 175.8 189.1 656.4
10/05 09:30 23.8 76 16.35 19.3 20 35 1022.4 0 35.4 36.1 66.6 176.0 189.4 657.5
10/05 09:20 23.5 78 16.49 19.4 20 30 1022.4 0 35.7 36.4 67.5 178.4 192.2 667.3
10/05 09:10 23 79 16.24 19.2 20 28 1022.3 0 35.2 36.2 66.8 176.5 189.8 658.6
10/05 09:00 23 80 16.44 19.4 19 28 1022 0 35.7 36.5 67.7 178.9 192.7 668.9
10/05 08:50 22.8 81 16.46 19.4 19 28 1022 0 35.7 36.7 68.0 179.6 193.5 671.7
10/05 08:40 22.6 82 16.47 19.4 15 19 1022 0 35.8 36.8 68.2 180.2 194.2 673.9
10/05 08:30 22.2 83 16.29 19.2 17 28 1021.8 0 35.4 36.6 67.7 178.9 192.5 668.0
10/05 08:20 21.5 83 15.65 18.5 22 30 1021.8 0 34.1 35.7 65.4 172.7 184.7 640.6
10/05 08:10 21.5 85 16.03 18.9 20 26 1021.7 0 34.9 36.4 67.1 177.3 190.3 660.4
10/05 08:00 21.4 85 15.93 18.8 19 30 1021.6 0 34.7 36.3 66.8 176.3 189.1 655.9
10/05 07:50 21 86 15.75 18.6 17 20 1021.5 0 34.4 36.1 66.3 175.0 187.3 649.9
10/05 07:40 20.9 86 15.66 18.5 19 24 1021.3 0 34.2 36.0 65.9 174.1 186.2 645.9
10/05 07:30 20.7 87 15.66 18.5 19 30 1021.2 0 34.2 36.1 66.1 174.6 186.7 647.6
10/05 07:20 20.3 88 15.48 18.2 19 22 1021.1 0 33.9 35.9 65.6 173.2 185.0 641.5
10/05 07:10 20.1 89 15.47 18.2 17 22 1020.8 0 33.9 35.9 65.7 173.5 185.3 642.5
10/05 07:00 20 89 15.38 18.1 17 26 1020.8 0 33.7 35.8 65.4 172.6 184.1 638.6
10/05 06:50 20 89 15.38 18.1 17 20 1020.8 0 33.7 35.8 65.4 172.6 184.1 638.6
10/05 06:40 20 89 15.38 18.1 19 26 1020.5 0 33.7 35.8 65.4 172.6 184.1 638.4
10/05 06:30 20.1 88 15.3 18.1 19 30 1020.4 0 33.5 35.6 64.9 171.4 182.6 633.4
10/05 06:20 19.9 89 15.29 18 19 26 1020.3 0 33.5 35.7 65.0 171.7 183.0 634.4
10/05 06:10 19.9 88 15.12 17.9 19 20 1020.1 0 33.1 35.3 64.2 169.6 180.4 625.4
10/05 06:00 20 88 15.21 18 20 32 1019.9 0 33.3 35.5 64.6 170.4 181.5 629.2
10/05 05:50 20.2 88 15.39 18.1 20 26 1019.9 0 33.7 35.7 65.2 172.2 183.7 637.0
10/05 05:40 20.2 88 15.39 18.1 19 24 1019.8 0 33.7 35.7 65.2 172.2 183.7 637.0
10/05 05:30 20.2 88 15.39 18.1 17 30 1019.9 0 33.7 35.7 65.2 172.2 183.7 637.0
10/05 05:20 20.2 88 15.39 18.1 20 26 1019.8 0 33.7 35.7 65.2 172.2 183.7 637.0
10/05 05:10 20.1 89 15.47 18.2 19 20 1019.6 0 33.9 35.9 65.7 173.4 185.1 641.9
10/05 05:00 20 89 15.38 18.1 19 26 1019.4 0 33.7 35.8 65.3 172.4 184.0 637.9
10/05 04:50 20.2 89 15.56 18.3 17 22 1019.2 0 34.0 36.0 66.0 174.2 186.2 645.6
10/05 04:40 20.3 89 15.65 18.4 19 26 1019.3 0 34.2 36.1 66.3 175.1 187.3 649.6
10/05 04:30 20.4 89 15.74 18.5 17 26 1019.3 0 34.4 36.3 66.6 176.0 188.4 653.5
10/05 04:20 20.3 89 15.65 18.4 20 26 1019.1 0 34.2 36.1 66.3 175.0 187.3 649.5
10/05 04:10 20.3 89 15.65 18.4 19 24 1019.1 0 34.2 36.1 66.3 175.0 187.3 649.5
10/05 04:00 20.3 89 15.65 18.4 19 26 1019 0 34.2 36.1 66.3 175.0 187.2 649.4
10/05 03:50 20.4 90 15.92 18.7 19 22 1019 0 34.8 36.6 67.4 178.1 191.1 662.9
10/05 03:40 20.2 90 15.74 18.5 17 20 1019 0 34.4 36.3 66.8 176.4 188.9 655.1
10/05 03:30 20.3 90 15.83 18.6 17 24 1019.1 0 34.6 36.5 67.1 177.3 190.0 659.0
10/05 03:20 20.2 91 15.91 18.7 17 20 1019.1 0 34.8 36.6 67.6 178.5 191.5 664.2
10/05 03:10 20.1 90 15.64 18.4 19 26 1019 0 34.2 36.2 66.4 175.4 187.6 650.6
10/05 03:00 20 91 15.73 18.5 17 24 1019 0 34.4 36.4 66.9 176.7 189.2 656.3
10/05 02:50 20 91 15.73 18.5 13 19 1019.1 0 34.4 36.4 66.9 176.7 189.2 656.3
10/05 02:40 19.9 90 15.46 18.2 17 20 1019.3 0 33.9 35.9 65.8 173.6 185.4 643.0
10/05 02:30 20 89 15.38 18.1 17 24 1019.4 0 33.7 35.8 65.3 172.4 184.0 637.9
10/05 02:20 20 90 15.55 18.3 15 17 1019.5 0 34.0 36.1 66.1 174.6 186.5 647.0
10/05 02:10 20.2 89 15.56 18.3 15 17 1019.6 0 34.0 36.0 66.0 174.2 186.2 645.8
10/05 02:00 20.2 90 15.74 18.5 15 26 1019.7 0 34.4 36.4 66.8 176.5 189.0 655.4
10/05 01:50 20.1 91 15.82 18.6 13 19 1019.9 0 34.6 36.6 67.3 177.7 190.5 660.6
10/05 01:40 19.7 92 15.62 18.4 15 22 1019.9 0 34.2 36.4 66.7 176.2 188.4 653.4
10/05 01:30 19.3 92 15.26 18 13 17 1020 0 33.5 35.9 65.4 172.6 183.9 637.8
10/05 01:20 19.2 91 15 17.7 13 15 1020 0 32.9 35.4 64.3 169.7 180.2 624.8
10/05 01:10 19.1 92 15.08 17.8 13 15 1020 0 33.1 35.6 64.7 170.9 181.7 629.9
10/05 01:00 19 91 14.83 17.5 11 15 1020.2 0 32.6 35.2 63.7 168.0 178.2 617.6
10/05 00:50 19.1 91 14.92 17.6 11 13 1020.1 0 32.8 35.3 64.0 168.9 179.3 621.5
10/05 00:40 19.3 90 14.93 17.6 11 11 1020.2 0 32.8 35.2 63.9 168.6 179.0 620.4
10/05 00:30 19.5 88 14.77 17.5 13 19 1020.3 0 32.4 34.9 63.0 166.2 176.1 610.5
10/05 00:20 19.9 87 14.95 17.7 13 15 1020.3 0 32.8 35.0 63.5 167.5 177.8 616.6
10/05 00:10 20.5 84 14.95 17.7 15 19 1020.4 0 32.7 34.8 63.0 166.2 176.4 611.9
10/05 00:00 21.9 83 16.02 18.9 17 28 1020.4 0 34.9 36.2 66.7 176.1 189.0 655.8
09/05 23:50 21.8 84 16.11 19 13 17 1020.3 0 35.1 36.4 67.2 177.4 190.6 661.3
09/05 23:40 21.9 84 16.21 19.1 17 20 1020.4 0 35.3 36.5 67.5 178.4 191.9 665.7
09/05 23:30 22 84 16.3 19.2 19 32 1020.4 0 35.5 36.6 67.9 179.3 193.0 669.6
09/05 23:20 22.2 83 16.29 19.2 19 26 1020.4 0 35.4 36.5 67.7 178.7 192.3 667.3
09/05 23:10 22.4 80 15.89 18.8 19 28 1020.4 0 34.6 35.7 65.6 173.4 185.8 644.8
09/05 23:00 22.5 77 15.38 18.3 19 30 1020.5 0 33.5 34.8 63.3 167.1 178.1 617.9
09/05 22:50 22.5 77 15.38 18.3 20 26 1020.5 0 33.5 34.8 63.3 167.1 178.1 617.9
09/05 22:40 22.5 78 15.58 18.5 17 24 1020.5 0 33.9 35.1 64.2 169.4 181.0 628.1
09/05 22:30 22.4 80 15.89 18.8 17 30 1020.5 0 34.6 35.7 65.7 173.4 185.8 644.8
09/05 22:20 22.4 79 15.69 18.6 17 22 1020.6 0 34.1 35.4 64.8 171.0 182.9 634.6
09/05 22:10 22.3 80 15.8 18.7 17 24 1020.7 0 34.4 35.6 65.3 172.6 184.8 641.1
09/05 22:00 22.3 81 15.99 18.9 19 32 1020.7 0 34.8 36.0 66.2 174.8 187.6 650.9
09/05 21:50 22.2 81 15.9 18.8 15 19 1020.9 0 34.6 35.8 65.9 174.0 186.5 647.2
09/05 21:40 22.2 82 16.1 19 17 22 1021 0 35.0 36.2 66.8 176.5 189.5 657.7
09/05 21:30 22.2 83 16.29 19.2 17 28 1021.2 0 35.4 36.6 67.7 178.8 192.4 667.7
09/05 21:20 22.2 83 16.29 19.2 22 32 1021.1 0 35.4 36.6 67.7 178.8 192.4 667.6
09/05 21:10 22.4 80 15.89 18.8 19 24 1021 0 34.5 35.8 65.7 173.5 185.9 645.1
09/05 21:00 22.5 81 16.18 19.1 15 26 1020.9 0 35.2 36.2 66.9 176.7 190.0 659.2
09/05 20:50 22.4 81 16.09 19 17 24 1021 0 35.0 36.1 66.6 175.9 188.9 655.4
09/05 20:40 22.3 81 15.99 18.9 15 19 1021 0 34.8 36.0 66.2 174.9 187.6 651.1
09/05 20:30 22.3 82 16.19 19.1 17 28 1021 0 35.2 36.3 67.1 177.3 190.6 661.5

Last Refresh: 10-May-2026 12:47:50

Bureau of Meteorology